If you wish to contribute or participate in the discussions about articles you are invited to join SKYbrary as a registered user

 Actions

Arad International Airport

From SKYbrary Wiki

LRAR
Airport
ICAO: LRAR – IATA: ARW
Summary
Name Arad International Airport
Region
Territory Romania RO.gif
Location , Arad
Serving Arad
Elevation 107.29 m
352 ft
352 ft107.29 m
Type medium airport
Coordinates 46° 10' 35.58" N, 21° 15' 43.28" E
Runways
Designator Length Width Surface ROPS
9/27 2000 m6,561.68 ft
45 m147.638 ft
CON /


METAR
Observation LRAR 260030Z 10011KT 9999 FEW050CB 24/17 Q1019
Station Arad
Date/Time 26 August 2019 00:30:00
Wind direction 100°
Wind speed 11 kts
Lowest cloud amount few clouds
Temperature 24°C
Dew point 17°C
Humidity 64%
QNH 1019 hPa
Weather condition n/a